Regional Weather Roundup
Issued by NWS

Home | Current Version | Previous Version | Graphics & Text | Print | Product List | Glossary On
Versions: 1 2 3 4 5 6 7 8 9 10 11 12 13 14 15 16 17 18 19 20 21 22 23 24 25 26 27 28 29 30 31 32 33 34 35 36 37 38 39 40 41 42 43 44 45 46 47 48 49 50
000
ASUS43 KMKX 271200
RWRWI

WISCONSIN REGIONAL WEATHER ROUNDUP
NATIONAL WEATHER SERVICE MILWAUKEE/SULLIVAN WI
600 AM CST TUE JAN 27 2015

NOTE: "FAIR" INDICATES FEW OR NO CLOUDS BELOW 12,000 FEET WITH NO
SIGNIFICANT WEATHER AND/OR OBSTRUCTIONS TO VISIBILITY.

WIZ001-002-006>008-014>016-023>028-271300-
NORTHWEST WISCONSIN

CITY           SKY/WX    TMP DP  RH WIND       PRES   REMARKS
SUPERIOR ARPT  CLOUDY    28  23  82 NE5       30.11S WCI  23
ASHLAND        CLOUDY    27  21  78 NW5       30.10R WCI  22
6HR MIN TEMP:  25; 6HR MAX TEMP:  27;

HAYWARD        CLOUDY    26  20  77 N5        30.08R WCI  20
6HR MIN TEMP:  26; 6HR MAX TEMP:  27;

SIREN          CLOUDY    29  22  75 NE3       30.10R
CUMBERLAND     CLOUDY    28  23  80 N5        30.08R WCI  23
RICE LAKE      CLOUDY    28  23  83 N3        30.09S
CHETEK         CLOUDY    28  24  87 N3        30.09R
LADYSMITH      CLOUDY    25  23  91 CALM      30.09R
EAU CLAIRE     NOT AVBL
MENOMONIE      CLOUDY    30  25  83 N3        30.10R
NEW RICHMOND   CLOUDY    30  24  78 NE3       30.10R
OSCEOLA        CLOUDY    31  25  78 N5        30.13R WCI  26
$$

WIZ003>005-009-010-017-018-271300-
NORTH CENTRAL WISCONSIN

CITY           SKY/WX    TMP DP  RH WIND       PRES   REMARKS
MANITOWISH WTR CLOUDY    19  18  97 CALM      30.05R FOG
ARBOR VITAE    CLOUDY    22  20  92 CALM      30.05R FOG
WOODRUFF       CLOUDY    22  20  92 CALM      30.05R FOG
RHINELANDER    CLOUDY    20  17  88 CALM      30.05R
6HR MIN TEMP:  19; 6HR MAX TEMP:  20;

EAGLE RIVER    CLOUDY    19  17  88 CALM      30.05R
LAND O LAKES   CLOUDY    20  18  93 CALM      30.06R
PHILLIPS       CLOUDY    20  18  94 CALM      30.05R
TOMAHAWK       CLOUDY    20  18  93 CALM      30.05S
MEDFORD        CLOUDY    21  19  94 CALM      30.05R FOG
MERRILL        CLOUDY    21  20  95 CALM      30.05S
$$

WIZ029-030-035-036-043>047-271300-
CENTRAL WISCONSIN

CITY           SKY/WX    TMP DP  RH WIND       PRES   REMARKS
WAUSAU         CLOUDY    22  20  92 NE5       30.05R FOG     WCI  16
6HR MIN TEMP:  21; 6HR MAX TEMP:  22;

MOSINEE        NOT AVBL
MARSHFIELD     CLOUDY    23  20  88 N6        30.07R FOG     WCI  16
6HR MIN TEMP:  23; 6HR MAX TEMP:  23;

STEVENS POINT  CLOUDY    21  19  94 N3        30.07R FOG
WAUPACA        CLOUDY    26  23  88 NE3       30.08R
WAUTOMA        NOT AVBL
WISC RAPIDS    CLOUDY    23  19  85 N5        30.09R WCI  17
6HR MIN TEMP:  22; 6HR MAX TEMP:  23;

CAMP DOUGLAS   CLOUDY    25  25 100 N3        30.08R
$$

WIZ011>013-019>022-031-037>040-048>050-271300-
NORTHEAST WISCONSIN

CITY           SKY/WX    TMP DP  RH WIND       PRES   REMARKS
ANTIGO         CLOUDY    20  19  97 CALM      30.05R FOG
SHAWANO        CLOUDY    24  21  87 NE3       30.10R
OCONTO         CLOUDY    22  19  91 CALM      30.11R
STURGEON BAY   CLOUDY    19  16  86 NE5       30.13R WCI  13
6HR MIN TEMP:  18; 6HR MAX TEMP:  23;

GREEN BAY      CLOUDY    23  20  88 NE7       30.11R WCI  15
6HR MIN TEMP:  23; 6HR MAX TEMP:  24; 6HR PCP:  0.01;

MANITOWOC      NOT AVBL
APPLETON       CLOUDY    25  19  80 NE6       30.08R WCI  18
CLINTONVILLE   CLOUDY    23  21  93 NE5       30.09R WCI  17
OSHKOSH        CLOUDY    25  20  81 NE6       30.08R WCI  18
6HR MIN TEMP:  23; 6HR MAX TEMP:  25; 6HR PCP: TRACE;

$$

WIZ032>034-041-042-053>061-271300-
SOUTHWEST WISCONSIN

CITY           SKY/WX    TMP DP  RH WIND       PRES   REMARKS
LA CROSSE      CLOUDY    31  23  72 N6        30.09R WCI  25
6HR MIN TEMP:  30; 6HR MAX TEMP:  32;

SPARTA         CLOUDY    26  25  96 CALM      30.09R
VIROQUA        CLOUDY    27  22  82 N12G21    30.04R WCI  17
BOSCOBEL       CLOUDY    30  25  81 NE3       30.09R
6HR MIN TEMP:  27; 6HR MAX TEMP:  31;

PRAIRIE DU CHI CLOUDY    31  22  70 N6        30.08R WCI  25
PLATTEVILLE    CLOUDY    28  26  90 N9        30.04R WCI  20
$$

WIZ056-057-062-063-064-067-068-271300-
SOUTH CENTRAL WISCONSIN

CITY           SKY/WX    TMP DP  RH WIND       PRES   REMARKS
REEDSBURG      CLOUDY    24  22  93 N5        30.06R WCI  18
BARABOO/DELLS  MOCLDY    21  19  93 CALM      30.06R FOG
LONE ROCK      NOT AVBL
MINERAL POINT  CLOUDY    28  27  93 N8        30.03R WCI  20
MADISON        CLOUDY    25  21  85 N7        30.06R FOG     WCI  17
6HR MIN TEMP:  24; 6HR MAX TEMP:  25;

MIDDLETON      CLOUDY    26  24  91 N9        30.05R WCI  16
WATERTOWN      CLOUDY    24  24  96 N3        30.04R FOG
MONROE         CLOUDY    27  25  93 N10       30.02R WCI  17
JANESVILLE     CLOUDY    27  25  93 CALM      30.05R FOG
$$

WIZ051-052-058>065-066-070>072-271300-
SOUTHEAST WISCONSIN

CITY           SKY/WX    TMP DP  RH WIND       PRES   REMARKS
MILWAUKEE      CLOUDY    28  20  71 E8        30.05R WCI  20
6HR MIN TEMP:  26; 6HR MAX TEMP:  28; 6HR PCP: TRACE;

WAUKESHA       CLOUDY    25  21  86 SE7       30.05R FOG     WCI  17
MILWAUKEE/TIMM CLOUDY    28  21  74 NE5       30.05R WCI  23
RACINE         CLOUDY    28  20  71 E8        30.06R WCI  20
6HR MIN TEMP:  26; 6HR MAX TEMP:  28; 6HR PCP: TRACE;

BURLINGTON     CLOUDY    24  23  96 N3        30.03R FOG
KENOSHA        CLOUDY    27  24  89 E6        30.04R WCI  20
6HR MIN TEMP:  26; 6HR MAX TEMP:  27;

FOND DU LAC    CLOUDY    26  20  77 E7        30.07R WCI  18
6HR MIN TEMP:  24; 6HR MAX TEMP:  26;

SHEBOYGAN      CLOUDY    25  18  74 NE6       30.08R WCI  18
6HR MIN TEMP:  25; 6HR MAX TEMP:  26;

WEST BEND      CLOUDY    27  21  80 NE8       30.04R WCI  18
JUNEAU         CLOUDY    24  22  93 N5        30.06R FOG     WCI  18
$$

LSZ147-162-271300-
LAKE SUPERIOR

STATION/POSITION TIME  TEMP    WIND        PRES    WAVE
                       AIR SEA DIR/SP/G            HT/PER
                 (UTC) (F)     (DEG/KT/KT) (MB)    (FT/S)
DEVILS ISLAND    1100   29      10/ 14/ 15 1019.9R
PORT WING        1140   28     350/  7/  9 1020.0R
SAXON HARBOR     1100   25        CALM     1018.6R
$$

LMZ867-665-643>646-271300-
LAKE MICHIGAN

STATION/POSITION TIME  TEMP    WIND        PRES    WAVE
                       AIR SEA DIR/SP/G            HT/PER
                 (UTC) (F)     (DEG/KT/KT) (MB)    (FT/S)
NORTHPORT PIER   1124   22      30/  3/  4 1020.0R
SISTER BAY       1013   22        CALM       N/A
KEWAUNEE LAKESHO 1100   25      60/  6/  9 1018.0R
SHEBOYGAN LAKESH 1100   26      70/  8/ 10 1019.1R
PORT WASHINGTON  1140   28      60/  8/ 12 1019.0R
KENOSHA   LAKESH 1100   29      80/ 12/ 13 1016.6R
$$

TC  - TEMPERATURE IN CELSIUS
VSB - VISIBILITY IN STATUTE MILES
WCI - WIND CHILL INDEX
HX  - HEAT INDEX



USA.gov is the U.S. government's official web portal to all federal, state and local government web resources and services.